,,,PA_Meas_PMT16A,,PR_Meas_QMR101_102,,RH_Meas_QMH101,,SR_Meas_QMS101,,TA_Meas_QMH101,,GenWind,,GenWind,
date,time,status,PA,status,PR,status,RH,status,SR,status,TA,status,DirAvg,status,SpdAvg,
2012-03-09, 00:00:05,VALID,997.069,VALID,0,VALID,93.2263,VALID,0,VALID,24.9698,VALID,78,VALID,0.924219,
2012-03-09, 00:01:05,VALID,997.043,VALID,0,VALID,93.2568,VALID,0,VALID,24.9484,VALID,78,VALID,0.742969,
2012-03-09, 00:02:05,VALID,997.014,VALID,0,VALID,93.295,VALID,0,VALID,24.9698,VALID,77,VALID,0.915625,
2012-03-09, 00:03:05,VALID,996.997,VALID,0,VALID,93.3408,VALID,0,VALID,24.9893,VALID,71,VALID,0.869531,
2012-03-09, 00:04:05,VALID,997.032,VALID,0,VALID,93.3637,VALID,0,VALID,25.0088,VALID,63,VALID,0.900391,
2012-03-09, 00:05:05,VALID,996.989,VALID,0,VALID,93.3408,VALID,0,VALID,24.9893,VALID,55,VALID,0.826563,
2012-03-09, 00:06:05,VALID,996.974,VALID,0,VALID,93.3255,VALID,0,VALID,24.9698,VALID,55,VALID,0.858594,
2012-03-09, 00:07:05,VALID,996.984,VALID,0,VALID,93.356,VALID,0,VALID,24.9698,VALID,55,VALID,0.850391,
2012-03-09, 00:08:05,VALID,996.975,VALID,0,VALID,93.3866,VALID,0,VALID,24.9698,VALID,55,VALID,0.753516,
2012-03-09, 00:09:05,VALID,996.96,VALID,0,VALID,93.3866,VALID,0,VALID,24.9698,VALID,55,VALID,0.622656,
2012-03-09, 00:10:05,VALID,996.94,VALID,0,VALID,93.3942,VALID,0,VALID,24.9698,VALID,55,VALID,0.752344,
2012-03-09, 00:11:05,VALID,996.932,VALID,0,VALID,93.4094,VALID,0,VALID,24.9698,VALID,55,VALID,0.733594,
2012-03-09, 00:12:05,VALID,996.96,VALID,0,VALID,93.4094,VALID,0,VALID,24.9698,VALID,55,VALID,1.05391,
2012-03-09, 00:13:05,VALID,997.002,VALID,0,VALID,93.4705,VALID,0,VALID,24.9698,VALID,73,VALID,1.80508,
2012-03-09, 00:14:05,VALID,997.025,VALID,0,VALID,93.5468,VALID,0,VALID,24.9484,VALID,78,VALID,2.06758,
2012-03-09, 00:15:05,VALID,996.999,VALID,0,VALID,93.5926,VALID,0,VALID,24.9698,VALID,83,VALID,2.28789,
2012-03-09, 00:16:05,VALID,996.978,VALID,0,VALID,93.4323,VALID,0,VALID,24.9503,VALID,101,VALID,3.32305,
2012-03-09, 00:17:05,VALID,997.01,VALID,0,VALID,93.0966,VALID,0,VALID,24.9112,VALID,114,VALID,1.78164,
2012-03-09, 00:18:05,VALID,997.004,VALID,0,VALID,92.9517,VALID,0,VALID,24.9308,VALID,123,VALID,1.73008,
2012-03-09, 00:19:05,VALID,997.021,VALID,0,VALID,92.9364,VALID,0,VALID,24.9112,VALID,110,VALID,1.51758,
2012-03-09, 00:20:05,VALID,997.025,VALID,0,VALID,92.8754,VALID,0,VALID,24.9112,VALID,107,VALID,0.915625,
2012-03-09, 00:21:05,VALID,997.012,VALID,0,VALID,92.7457,VALID,0,VALID,24.9112,VALID,126,VALID,0.953906,
2012-03-09, 00:22:05,VALID,997.047,VALID,0,VALID,92.6923,VALID,0,VALID,24.9308,VALID,137,VALID,0.678906,
2012-03-09, 00:23:05,VALID,997.011,VALID,0,VALID,92.7151,VALID,0,VALID,24.9308,VALID,159,VALID,0.862109,
2012-03-09, 00:24:05,VALID,997.033,VALID,0,VALID,92.6999,VALID,0,VALID,24.9503,VALID,164,VALID,0.871094,
2012-03-09, 00:25:05,VALID,997.039,VALID,0,VALID,92.7304,VALID,0,VALID,24.9503,VALID,156,VALID,0.685156,
2012-03-09, 00:26:05,VALID,997.062,VALID,0,VALID,92.6923,VALID,0,VALID,24.9698,VALID,155,VALID,0.760938,
2012-03-09, 00:27:05,VALID,997.063,VALID,0,VALID,92.5854,VALID,0,VALID,24.9893,VALID,138,VALID,0.652344,
2012-03-09, 00:28:05,VALID,997.105,VALID,0,VALID,92.4786,VALID,0,VALID,24.9893,VALID,122,VALID,0.695313,
2012-03-09, 00:29:05,VALID,997.133,VALID,0,VALID,92.2955,VALID,0,VALID,24.9893,VALID,102,VALID,0.978906,
2012-03-09, 00:30:05,VALID,997.107,VALID,0,VALID,92.326,VALID,0,VALID,25.0088,VALID,91,VALID,0.482422,
2012-03-09, 00:31:05,VALID,997.035,VALID,0,VALID,92.2879,VALID,0,VALID,24.9893,VALID,91,VALID,0.410156,
2012-03-09, 00:32:05,VALID,997.053,VALID,0,VALID,92.2192,VALID,0,VALID,24.9893,VALID,91,VALID,0,
2012-03-09, 00:33:05,VALID,996.972,VALID,0,VALID,92.1963,VALID,0,VALID,24.9893,VALID,91,VALID,0,
2012-03-09, 00:34:05,VALID,996.92,VALID,0,VALID,92.1353,VALID,0,VALID,24.9698,VALID,91,VALID,0.423047,
2012-03-09, 00:35:05,VALID,996.895,VALID,0,VALID,92.0132,VALID,0,VALID,24.9698,VALID,136,VALID,0.518359,
2012-03-09, 00:36:05,VALID,996.867,VALID,0,VALID,91.9064,VALID,0,VALID,24.9503,VALID,149,VALID,0.647266,
2012-03-09, 00:37:05,VALID,996.845,VALID,0,VALID,91.7004,VALID,0,VALID,24.9308,VALID,164,VALID,0.864453,
2012-03-09, 00:38:05,VALID,996.797,VALID,0,VALID,91.7233,VALID,0,VALID,24.9503,VALID,169,VALID,0.917188,
2012-03-09, 00:39:05,VALID,996.794,VALID,0,VALID,91.8759,VALID,0,VALID,24.9503,VALID,175,VALID,1.28555,
2012-03-09, 00:40:05,VALID,996.784,VALID,0,VALID,91.914,VALID,0,VALID,24.9893,VALID,172,VALID,1.45508,
2012-03-09, 00:41:05,VALID,996.798,VALID,0,VALID,91.7385,VALID,0,VALID,25.0088,VALID,169,VALID,1.2125,
2012-03-09, 00:42:05,VALID,996.795,VALID,0,VALID,91.7233,VALID,0,VALID,25.0088,VALID,168,VALID,0.910156,
2012-03-09, 00:43:05,VALID,996.796,VALID,0,VALID,91.5707,VALID,0,VALID,25.0284,VALID,168,VALID,0.785156,
2012-03-09, 00:44:05,VALID,996.786,VALID,0,VALID,91.441,VALID,0,VALID,25.0284,VALID,168,VALID,0.83125,
2012-03-09, 00:45:05,VALID,996.74,VALID,0,VALID,91.3189,VALID,0,VALID,25.0284,VALID,168,VALID,0.723437,
2012-03-09, 00:46:05,VALID,996.738,VALID,0,VALID,91.3037,VALID,0,VALID,25.0284,VALID,168,VALID,0.795313,
2012-03-09, 00:47:05,VALID,996.705,VALID,0,VALID,91.3189,VALID,0,VALID,24.9874,VALID,168,VALID,0.933203,
2012-03-09, 00:48:05,VALID,996.651,VALID,0,VALID,91.38,VALID,0,VALID,25.0284,VALID,169,VALID,0.798828,
2012-03-09, 00:49:05,VALID,996.622,VALID,0,VALID,91.3571,VALID,0,VALID,25.0284,VALID,172,VALID,0.778516,
2012-03-09, 00:50:05,VALID,996.596,VALID,0,VALID,91.502,VALID,0,VALID,25.0479,VALID,169,VALID,1.13242,
2012-03-09, 00:51:05,VALID,996.576,VALID,0,VALID,91.8225,VALID,0,VALID,25.0674,VALID,171,VALID,1.52305,
2012-03-09, 00:52:05,VALID,996.592,VALID,0,VALID,91.8072,VALID,0,VALID,25.0479,VALID,183,VALID,1.18906,
2012-03-09, 00:53:05,VALID,996.561,VALID,0,VALID,91.7233,VALID,0,VALID,25.0869,VALID,183,VALID,1.13633,
2012-03-09, 00:54:05,VALID,996.554,VALID,0,VALID,91.7385,VALID,0,VALID,25.0869,VALID,183,VALID,0.671484,
2012-03-09, 00:55:05,VALID,996.576,VALID,0,VALID,91.2655,VALID,0,VALID,25.0869,VALID,159,VALID,1.12578,
2012-03-09, 00:56:05,VALID,996.533,VALID,0,VALID,91.4028,VALID,0,VALID,25.126,VALID,153,VALID,1.44609,
2012-03-09, 00:57:05,VALID,996.592,VALID,0,VALID,91.6851,VALID,0,VALID,25.1455,VALID,185,VALID,0.974609,
2012-03-09, 00:58:05,VALID,996.604,VALID,0,VALID,91.853,VALID,0,VALID,25.165,VALID,158,VALID,1.14727,
2012-03-09, 00:59:05,VALID,996.561,VALID,0,VALID,92.1048,VALID,0,VALID,25.1845,VALID,171,VALID,1.11367,
2012-03-09, 01:00:05,VALID,996.564,VALID,0,VALID,92.0895,VALID,0,VALID,25.1845,VALID,177,VALID,1.16758,
2012-03-09, 01:01:05,VALID,996.569,VALID,0,VALID,91.9827,VALID,0,VALID,25.1826,VALID,186,VALID,0.813281,
2012-03-09, 01:02:05,VALID,996.524,VALID,0,VALID,91.8606,VALID,0,VALID,25.165,VALID,187,VALID,0.643359,
2012-03-09, 01:03:05,VALID,996.533,VALID,0,VALID,91.8301,VALID,0,VALID,25.1845,VALID,169,VALID,0.941797,
2012-03-09, 01:04:05,VALID,996.555,VALID,0,VALID,91.6623,VALID,0,VALID,25.165,VALID,169,VALID,0.528516,
2012-03-09, 01:05:05,VALID,996.494,VALID,0,VALID,91.4944,VALID,0,VALID,25.165,VALID,169,VALID,0.363281,
2012-03-09, 01:06:05,VALID,996.526,VALID,0,VALID,91.4105,VALID,0,VALID,25.126,VALID,169,VALID,0.332422,
2012-03-09, 01:07:05,VALID,996.503,VALID,0,VALID,91.2426,VALID,0,VALID,25.1064,VALID,169,VALID,0.0707031,
2012-03-09, 01:08:05,VALID,996.49,VALID,0,VALID,91.2579,VALID,0,VALID,25.1083,VALID,169,VALID,0.154687,
2012-03-09, 01:09:05,VALID,996.495,VALID,0,VALID,91.6317,VALID,0,VALID,25.1064,VALID,103,VALID,0.727734,
2012-03-09, 01:10:05,VALID,996.502,VALID,0,VALID,91.9293,VALID,0,VALID,25.1064,VALID,94,VALID,0.423047,
2012-03-09, 01:11:05,VALID,996.475,VALID,0,VALID,92.0132,VALID,0,VALID,25.0869,VALID,94,VALID,0,
2012-03-09, 01:12:05,VALID,996.461,VALID,0,VALID,91.998,VALID,0,VALID,25.0674,VALID,94,VALID,0,
2012-03-09, 01:13:05,VALID,996.443,VALID,0,VALID,92.0819,VALID,0,VALID,25.0674,VALID,94,VALID,0,
2012-03-09, 01:14:05,VALID,996.458,VALID,0,VALID,92.204,VALID,0,VALID,25.0479,VALID,94,VALID,0,
2012-03-09, 01:15:05,VALID,996.467,VALID,0,VALID,92.1811,VALID,0,VALID,25.0479,VALID,94,VALID,0,
2012-03-09, 01:16:05,VALID,996.481,VALID,0,VALID,92.2497,VALID,0,VALID,25.0479,VALID,94,VALID,0,
2012-03-09, 01:17:04,VALID,996.491,VALID,0,VALID,92.3031,VALID,0,VALID,25.0284,VALID,94,VALID,0,
2012-03-09, 01:18:04,VALID,996.491,VALID,0,VALID,92.4328,VALID,0,VALID,25.0284,VALID,346,VALID,0,
2012-03-09, 01:19:04,VALID,996.49,VALID,0,VALID,92.4634,VALID,0,VALID,25.0284,VALID,341,VALID,0,
2012-03-09, 01:20:04,VALID,996.481,VALID,0,VALID,92.4481,VALID,0,VALID,25.0088,VALID,340,VALID,0,
2012-03-09, 01:21:04,VALID,996.464,VALID,0,VALID,92.3871,VALID,0,VALID,24.9698,VALID,339,VALID,0,
2012-03-09, 01:22:04,VALID,996.447,VALID,0,VALID,92.3566,VALID,0,VALID,24.9503,VALID,330,VALID,0.515234,
2012-03-09, 01:23:04,VALID,996.46,VALID,0,VALID,92.3031,VALID,0,VALID,24.9112,VALID,283,VALID,0.849609,
2012-03-09, 01:24:04,VALID,996.454,VALID,0,VALID,92.2421,VALID,0,VALID,24.8917,VALID,279,VALID,0.661328,
2012-03-09, 01:25:04,VALID,996.43,VALID,0,VALID,92.2268,VALID,0,VALID,24.8527,VALID,270,VALID,0.673828,
2012-03-09, 01:26:04,VALID,996.408,VALID,0,VALID,92.2497,VALID,0,VALID,24.8332,VALID,270,VALID,0.0953125,
2012-03-09, 01:27:04,VALID,996.387,VALID,0,VALID,92.2879,VALID,0,VALID,24.7941,VALID,270,VALID,0.0804688,
2012-03-09, 01:28:04,VALID,996.386,VALID,0,VALID,92.2879,VALID,0,VALID,24.7941,VALID,270,VALID,0,
2012-03-09, 01:29:04,VALID,996.421,VALID,0,VALID,92.3642,VALID,0,VALID,24.7765,VALID,270,VALID,0,
2012-03-09, 01:30:04,VALID,996.415,VALID,0,VALID,92.3489,VALID,0,VALID,24.7356,VALID,270,VALID,0,
2012-03-09, 01:31:04,VALID,996.409,VALID,0,VALID,92.326,VALID,0,VALID,24.716,VALID,270,VALID,0,
2012-03-09, 01:32:04,VALID,996.395,VALID,0,VALID,92.3413,VALID,0,VALID,24.716,VALID,270,VALID,0,
2012-03-09, 01:33:04,VALID,996.392,VALID,0,VALID,92.4405,VALID,0,VALID,24.6965,VALID,270,VALID,0,
2012-03-09, 01:34:04,VALID,996.388,VALID,0,VALID,92.4863,VALID,0,VALID,24.677,VALID,270,VALID,0,
2012-03-09, 01:35:04,VALID,996.378,VALID,0,VALID,92.5091,VALID,0,VALID,24.677,VALID,270,VALID,0,
2012-03-09, 01:36:04,VALID,996.392,VALID,0,VALID,92.5244,VALID,0,VALID,24.6575,VALID,270,VALID,0,
2012-03-09, 01:37:04,VALID,996.389,VALID,0,VALID,92.5549,VALID,0,VALID,24.6575,VALID,270,VALID,0,
2012-03-09, 01:38:04,VALID,996.358,VALID,0,VALID,92.5626,VALID,0,VALID,24.638,VALID,270,VALID,0,
2012-03-09, 01:39:04,VALID,996.368,VALID,0,VALID,92.5931,VALID,0,VALID,24.6184,VALID,270,VALID,0,
2012-03-09, 01:40:04,VALID,996.375,VALID,0,VALID,92.6846,VALID,0,VALID,24.638,VALID,270,VALID,0,
2012-03-09, 01:41:04,VALID,996.379,VALID,0,VALID,92.7533,VALID,0,VALID,24.638,VALID,270,VALID,0,
2012-03-09, 01:42:04,VALID,996.375,VALID,0,VALID,92.7533,VALID,0,VALID,24.638,VALID,270,VALID,0,
2012-03-09, 01:43:04,VALID,996.345,VALID,0,VALID,92.7685,VALID,0,VALID,24.638,VALID,270,VALID,0,
2012-03-09, 01:44:04,VALID,996.336,VALID,0,VALID,92.7609,VALID,0,VALID,24.638,VALID,270,VALID,0,
2012-03-09, 01:45:04,VALID,996.307,VALID,0,VALID,92.8143,VALID,0,VALID,24.6575,VALID,270,VALID,0.232812,
2012-03-09, 01:46:04,VALID,996.277,VALID,0,VALID,92.7762,VALID,0,VALID,24.638,VALID,213,VALID,0.617188,
2012-03-09, 01:47:04,VALID,996.261,VALID,0,VALID,92.7609,VALID,0,VALID,24.6361,VALID,145,VALID,0.811719,
2012-03-09, 01:48:04,VALID,996.274,VALID,0,VALID,92.8448,VALID,0,VALID,24.638,VALID,145,VALID,0.744922,
2012-03-09, 01:49:04,VALID,996.261,VALID,0,VALID,92.8906,VALID,0,VALID,24.6398,VALID,145,VALID,0.654297,
2012-03-09, 01:50:04,VALID,996.283,VALID,0,VALID,92.9288,VALID,0,VALID,24.638,VALID,145,VALID,0.629297,
2012-03-09, 01:51:04,VALID,996.298,VALID,0,VALID,93.0127,VALID,0,VALID,24.6184,VALID,145,VALID,0.65625,
2012-03-09, 01:52:04,VALID,996.251,VALID,0,VALID,93.0585,VALID,0,VALID,24.638,VALID,145,VALID,0.649219,
2012-03-09, 01:53:04,VALID,996.255,VALID,0,VALID,93.0966,VALID,0,VALID,24.6184,VALID,145,VALID,0.720703,
2012-03-09, 01:54:04,VALID,996.25,VALID,0,VALID,93.1348,VALID,0,VALID,24.6184,VALID,145,VALID,0.770312,
2012-03-09, 01:55:04,VALID,996.224,VALID,0,VALID,93.1882,VALID,0,VALID,24.6184,VALID,145,VALID,0.857813,
2012-03-09, 01:56:04,VALID,996.22,VALID,0,VALID,93.2111,VALID,0,VALID,24.6184,VALID,139,VALID,1.04766,
2012-03-09, 01:57:04,VALID,996.198,VALID,0,VALID,93.2187,VALID,0,VALID,24.5989,VALID,139,VALID,0.969141,
2012-03-09, 01:58:04,VALID,996.203,VALID,0,VALID,93.1729,VALID,0,VALID,24.5989,VALID,139,VALID,0.778125,
2012-03-09, 01:59:04,VALID,996.196,VALID,0,VALID,93.1424,VALID,0,VALID,24.5989,VALID,139,VALID,0.593359,
2012-03-09, 02:00:04,VALID,996.191,VALID,0,VALID,93.1119,VALID,0,VALID,24.6008,VALID,139,VALID,0.427344,
2012-03-09, 02:01:04,VALID,996.21,VALID,0,VALID,93.1043,VALID,0,VALID,24.6008,VALID,139,VALID,0.324219,
2012-03-09, 02:02:04,VALID,996.215,VALID,0,VALID,93.1043,VALID,0,VALID,24.5599,VALID,139,VALID,0.178125,
2012-03-09, 02:03:04,VALID,996.213,VALID,0,VALID,93.1119,VALID,0,VALID,24.5404,VALID,139,VALID,0,
2012-03-09, 02:04:04,VALID,996.186,VALID,0,VALID,93.1043,VALID,0,VALID,24.5404,VALID,139,VALID,0,
2012-03-09, 02:05:04,VALID,996.17,VALID,0,VALID,93.089,VALID,0,VALID,24.5209,VALID,139,VALID,0.880859,
2012-03-09, 02:06:04,VALID,996.133,VALID,0,VALID,93.1119,VALID,0,VALID,24.5013,VALID,139,VALID,1.08633,
2012-03-09, 02:07:04,VALID,996.119,VALID,0,VALID,93.1043,VALID,0,VALID,24.5013,VALID,149,VALID,0.829297,
2012-03-09, 02:08:04,VALID,996.123,VALID,0,VALID,93.0661,VALID,0,VALID,24.5227,VALID,152,VALID,0.880469,
2012-03-09, 02:09:04,VALID,996.104,VALID,0,VALID,93.0356,VALID,0,VALID,24.4818,VALID,152,VALID,0.714844,
2012-03-09, 02:10:04,VALID,996.107,VALID,0,VALID,93.028,VALID,0,VALID,24.4818,VALID,151,VALID,0.654297,
2012-03-09, 02:11:04,VALID,996.095,VALID,0,VALID,92.9974,VALID,0,VALID,24.4818,VALID,146,VALID,0.795703,
2012-03-09, 02:12:04,VALID,996.082,VALID,0,VALID,92.9517,VALID,0,VALID,24.4623,VALID,134,VALID,0.784766,
2012-03-09, 02:13:04,VALID,996.072,VALID,0,VALID,92.9135,VALID,0,VALID,24.4623,VALID,135,VALID,0.747266,
2012-03-09, 02:14:04,VALID,996.088,VALID,0,VALID,92.883,VALID,0,VALID,24.4428,VALID,125,VALID,0.740625,
2012-03-09, 02:15:04,VALID,996.115,VALID,0,VALID,92.8677,VALID,0,VALID,24.4233,VALID,125,VALID,0.279297,
2012-03-09, 02:16:04,VALID,996.101,VALID,0,VALID,92.8525,VALID,0,VALID,24.4037,VALID,125,VALID,0.503906,
2012-03-09, 02:17:04,VALID,996.073,VALID,0,VALID,92.883,VALID,0,VALID,24.4251,VALID,125,VALID,0.185937,
2012-03-09, 02:18:04,VALID,996.09,VALID,0,VALID,92.8525,VALID,0,VALID,24.3629,VALID,125,VALID,0,
2012-03-09, 02:19:04,VALID,996.134,VALID,0,VALID,92.9135,VALID,0,VALID,24.3647,VALID,125,VALID,0.569922,
2012-03-09, 02:20:04,VALID,996.103,VALID,0,VALID,93.0814,VALID,0,VALID,24.3452,VALID,96,VALID,0.755859,
2012-03-09, 02:21:04,VALID,996.074,VALID,0,VALID,93.1958,VALID,0,VALID,24.3452,VALID,64,VALID,0.769922,
2012-03-09, 02:22:04,VALID,996.105,VALID,0,VALID,93.2416,VALID,0,VALID,24.3257,VALID,64,VALID,0.638672,
2012-03-09, 02:23:04,VALID,996.116,VALID,0,VALID,93.2645,VALID,0,VALID,24.3257,VALID,64,VALID,0.550781,
2012-03-09, 02:24:04,VALID,996.125,VALID,0,VALID,93.2874,VALID,0,VALID,24.3062,VALID,64,VALID,0.596875,
2012-03-09, 02:25:04,VALID,996.105,VALID,0,VALID,93.3103,VALID,0,VALID,24.3257,VALID,62,VALID,0.682031,
2012-03-09, 02:26:04,VALID,996.116,VALID,0,VALID,93.3331,VALID,0,VALID,24.3257,VALID,54,VALID,0.788281,
2012-03-09, 02:27:04,VALID,996.11,VALID,0,VALID,93.44,VALID,0,VALID,24.3062,VALID,38,VALID,0.880469,
2012-03-09, 02:28:04,VALID,996.119,VALID,0,VALID,93.4857,VALID,0,VALID,24.3257,VALID,38,VALID,1.06484,
2012-03-09, 02:29:04,VALID,996.112,VALID,0,VALID,93.5468,VALID,0,VALID,24.3062,VALID,36,VALID,1.10039,
2012-03-09, 02:30:04,VALID,996.138,VALID,0,VALID,93.5773,VALID,0,VALID,24.3257,VALID,31,VALID,0.9875,
2012-03-09, 02:31:04,VALID,996.122,VALID,0,VALID,93.5849,VALID,0,VALID,24.3062,VALID,31,VALID,0.721094,
2012-03-09, 02:32:04,VALID,996.129,VALID,0,VALID,93.646,VALID,0,VALID,24.3257,VALID,31,VALID,0.982422,
2012-03-09, 02:33:04,VALID,996.16,VALID,0,VALID,93.6994,VALID,0,VALID,24.3257,VALID,41,VALID,1.44414,
2012-03-09, 02:34:04,VALID,996.175,VALID,0,VALID,93.7833,VALID,0,VALID,24.3452,VALID,46,VALID,1.55234,
2012-03-09, 02:35:04,VALID,996.175,VALID,0,VALID,93.8367,VALID,0,VALID,24.3647,VALID,53,VALID,2.01406,
2012-03-09, 02:36:04,VALID,996.155,VALID,0,VALID,93.9054,VALID,0,VALID,24.3842,VALID,60,VALID,1.4957,
2012-03-09, 02:37:04,VALID,996.162,VALID,0,VALID,93.9206,VALID,0,VALID,24.3842,VALID,67,VALID,0.986328,
2012-03-09, 02:38:04,VALID,996.09,VALID,0,VALID,93.9054,VALID,0,VALID,24.4037,VALID,70,VALID,0.763281,
2012-03-09, 02:39:04,VALID,996.06,VALID,0,VALID,93.8977,VALID,0,VALID,24.4233,VALID,77,VALID,0.759766,
2012-03-09, 02:40:04,VALID,996.046,VALID,0,VALID,93.8291,VALID,0,VALID,24.4037,VALID,76,VALID,0.816797,
2012-03-09, 02:41:04,VALID,996.049,VALID,0,VALID,93.7528,VALID,0,VALID,24.4037,VALID,66,VALID,1.24805,
2012-03-09, 02:42:04,VALID,996.03,VALID,0,VALID,93.6765,VALID,0,VALID,24.4037,VALID,81,VALID,0.789063,
2012-03-09, 02:43:04,VALID,996.04,VALID,0,VALID,93.646,VALID,0,VALID,24.4037,VALID,83,VALID,0.751953,
2012-03-09, 02:44:04,VALID,996.008,VALID,0,VALID,93.5544,VALID,0,VALID,24.3824,VALID,88,VALID,1.09922,
2012-03-09, 02:45:04,VALID,996.001,VALID,0,VALID,93.4781,VALID,0,VALID,24.3842,VALID,87,VALID,0.935547,
2012-03-09, 02:46:04,VALID,995.988,VALID,0,VALID,93.3942,VALID,0,VALID,24.3629,VALID,87,VALID,0.265625,
2012-03-09, 02:47:04,VALID,995.963,VALID,0,VALID,93.295,VALID,0,VALID,24.3842,VALID,87,VALID,0,
2012-03-09, 02:48:04,VALID,995.953,VALID,0,VALID,93.2492,VALID,0,VALID,24.3452,VALID,87,VALID,0,
2012-03-09, 02:49:04,VALID,995.926,VALID,0,VALID,93.2111,VALID,0,VALID,24.3861,VALID,87,VALID,0,
2012-03-09, 02:50:04,VALID,995.947,VALID,0,VALID,93.1653,VALID,0,VALID,24.3452,VALID,87,VALID,0,
2012-03-09, 02:51:04,VALID,995.904,VALID,0,VALID,93.15,VALID,0,VALID,24.3452,VALID,87,VALID,0,
2012-03-09, 02:52:04,VALID,995.913,VALID,0,VALID,93.1729,VALID,0,VALID,24.3647,VALID,87,VALID,0,
2012-03-09, 02:53:04,VALID,995.892,VALID,0,VALID,93.2187,VALID,0,VALID,24.3647,VALID,87,VALID,0,
2012-03-09, 02:54:04,VALID,995.881,VALID,0,VALID,93.2797,VALID,0,VALID,24.3647,VALID,87,VALID,0,
2012-03-09, 02:55:04,VALID,995.889,VALID,0,VALID,93.3026,VALID,0,VALID,24.3647,VALID,87,VALID,0,
2012-03-09, 02:56:04,VALID,995.909,VALID,0,VALID,93.3637,VALID,0,VALID,24.3647,VALID,87,VALID,0,
2012-03-09, 02:57:04,VALID,995.928,VALID,0,VALID,93.3484,VALID,0,VALID,24.3647,VALID,87,VALID,0,
2012-03-09, 02:58:04,VALID,995.946,VALID,0,VALID,93.3866,VALID,0,VALID,24.3452,VALID,87,VALID,0,
2012-03-09, 02:59:04,VALID,995.955,VALID,0,VALID,93.4247,VALID,0,VALID,24.3647,VALID,87,VALID,0,
2012-03-09, 03:00:04,VALID,995.98,VALID,0,VALID,93.4476,VALID,0,VALID,24.3647,VALID,320,VALID,0.634766,
2012-03-09, 03:01:04,VALID,995.98,VALID,0,VALID,93.5239,VALID,0,VALID,24.3647,VALID,308,VALID,0.670703,
2012-03-09, 03:02:04,VALID,995.985,VALID,0,VALID,93.5239,VALID,0,VALID,24.3647,VALID,308,VALID,0.591406,
2012-03-09, 03:03:04,VALID,995.962,VALID,0,VALID,93.562,VALID,0,VALID,24.3647,VALID,308,VALID,0.728906,
2012-03-09, 03:04:04,VALID,995.933,VALID,0,VALID,93.5773,VALID,0,VALID,24.3647,VALID,308,VALID,0.747266,
2012-03-09, 03:05:04,VALID,995.933,VALID,0,VALID,93.6002,VALID,0,VALID,24.3842,VALID,308,VALID,0.696484,
2012-03-09, 03:06:04,VALID,995.905,VALID,0,VALID,93.6002,VALID,0,VALID,24.3433,VALID,308,VALID,0.257422,
2012-03-09, 03:07:04,VALID,995.892,VALID,0,VALID,93.6383,VALID,0,VALID,24.3647,VALID,308,VALID,0,
2012-03-09, 03:08:04,VALID,995.874,VALID,0,VALID,93.6078,VALID,0,VALID,24.3842,VALID,308,VALID,0,
2012-03-09, 03:09:04,VALID,995.862,VALID,0,VALID,93.5926,VALID,0,VALID,24.3647,VALID,308,VALID,0,
2012-03-09, 03:10:04,VALID,995.862,VALID,0,VALID,93.562,VALID,0,VALID,24.3647,VALID,308,VALID,0,
2012-03-09, 03:11:04,VALID,995.847,VALID,0,VALID,93.5773,VALID,0,VALID,24.3842,VALID,308,VALID,0,
2012-03-09, 03:12:04,VALID,995.842,VALID,0,VALID,93.562,VALID,0,VALID,24.3647,VALID,308,VALID,0,
2012-03-09, 03:13:04,VALID,995.829,VALID,0,VALID,93.5926,VALID,0,VALID,24.3647,VALID,308,VALID,0,
2012-03-09, 03:14:04,VALID,995.825,VALID,0,VALID,93.6231,VALID,0,VALID,24.3452,VALID,308,VALID,0,
2012-03-09, 03:15:04,VALID,995.875,VALID,0,VALID,93.6231,VALID,0,VALID,24.3452,VALID,308,VALID,0.504297,
2012-03-09, 03:16:04,VALID,995.906,VALID,0,VALID,93.6612,VALID,0,VALID,24.3452,VALID,308,VALID,0.508203,
2012-03-09, 03:17:04,VALID,995.887,VALID,0,VALID,93.7146,VALID,0,VALID,24.3433,VALID,308,VALID,0.573047,
2012-03-09, 03:18:04,VALID,995.906,VALID,0,VALID,93.7375,VALID,0,VALID,24.3647,VALID,308,VALID,0.523438,
2012-03-09, 03:19:04,VALID,995.903,VALID,0,VALID,93.7604,VALID,0,VALID,24.3647,VALID,308,VALID,0.527734,
2012-03-09, 03:20:04,VALID,995.917,VALID,0,VALID,93.7985,VALID,0,VALID,24.3647,VALID,308,VALID,0.515625,
2012-03-09, 03:21:04,VALID,995.937,VALID,0,VALID,93.852,VALID,0,VALID,24.3647,VALID,308,VALID,0.651953,
2012-03-09, 03:22:04,VALID,995.919,VALID,0,VALID,93.8672,VALID,0,VALID,24.3647,VALID,344,VALID,0.891406,
2012-03-09, 03:23:04,VALID,995.944,VALID,0,VALID,93.9054,VALID,0,VALID,24.3647,VALID,347,VALID,0.979688,
2012-03-09, 03:24:04,VALID,995.936,VALID,0,VALID,93.9435,VALID,0,VALID,24.3452,VALID,348,VALID,0.762891,
2012-03-09, 03:25:04,VALID,995.964,VALID,0,VALID,93.974,VALID,0,VALID,24.3647,VALID,348,VALID,0.647266,
2012-03-09, 03:26:04,VALID,995.971,VALID,0,VALID,93.9817,VALID,0,VALID,24.3647,VALID,348,VALID,0.550781,
2012-03-09, 03:27:04,VALID,995.998,VALID,0,VALID,93.9893,VALID,0,VALID,24.3647,VALID,348,VALID,0.687891,
2012-03-09, 03:28:04,VALID,996.012,VALID,0,VALID,94.0045,VALID,0,VALID,24.3647,VALID,348,VALID,0.564844,
2012-03-09, 03:29:04,VALID,996.072,VALID,0,VALID,94.0122,VALID,0,VALID,24.3647,VALID,348,VALID,0.619141,
2012-03-09, 03:30:04,VALID,996.108,VALID,0,VALID,94.0427,VALID,0,VALID,24.3842,VALID,348,VALID,0.681641,
2012-03-09, 03:31:04,VALID,996.123,VALID,0,VALID,94.0198,VALID,0,VALID,24.3647,VALID,335,VALID,0.754297,
2012-03-09, 03:32:04,VALID,996.104,VALID,0,VALID,94.0045,VALID,0,VALID,24.3433,VALID,335,VALID,0.678516,
2012-03-09, 03:33:04,VALID,996.116,VALID,0,VALID,93.9588,VALID,0,VALID,24.3452,VALID,335,VALID,0.891016,
2012-03-09, 03:34:04,VALID,996.105,VALID,0,VALID,93.9283,VALID,0,VALID,24.3452,VALID,340,VALID,0.803516,
2012-03-09, 03:35:04,VALID,996.068,VALID,0,VALID,93.9054,VALID,0,VALID,24.3238,VALID,347,VALID,0.316016,
2012-03-09, 03:36:04,VALID,996.024,VALID,0,VALID,93.913,VALID,0,VALID,24.3238,VALID,7,VALID,0.710938,
2012-03-09, 03:37:04,VALID,996.036,VALID,0,VALID,93.913,VALID,0,VALID,24.3257,VALID,7,VALID,0.297656,
2012-03-09, 03:38:04,VALID,995.971,VALID,0,VALID,93.9054,VALID,0,VALID,24.3257,VALID,8,VALID,0.267969,
2012-03-09, 03:39:04,VALID,996.021,VALID,0,VALID,93.9283,VALID,0,VALID,24.3043,VALID,8,VALID,0.283984,
2012-03-09, 03:40:04,VALID,995.991,VALID,0,VALID,93.9359,VALID,0,VALID,24.3257,VALID,8,VALID,0,
2012-03-09, 03:41:04,VALID,996.025,VALID,0,VALID,93.9511,VALID,0,VALID,24.3043,VALID,8,VALID,0.191406,
2012-03-09, 03:42:04,VALID,996.011,VALID,0,VALID,93.9283,VALID,0,VALID,24.3257,VALID,8,VALID,0.119141,
2012-03-09, 03:43:04,VALID,996.004,VALID,0,VALID,93.9435,VALID,0,VALID,24.3257,VALID,6,VALID,0,
2012-03-09, 03:44:04,VALID,995.99,VALID,0,VALID,93.9969,VALID,0,VALID,24.3452,VALID,312,VALID,0,
2012-03-09, 03:45:04,VALID,995.962,VALID,0,VALID,93.9893,VALID,0,VALID,24.3647,VALID,312,VALID,0,
2012-03-09, 03:46:04,VALID,995.967,VALID,0,VALID,94.0274,VALID,0,VALID,24.3452,VALID,310,VALID,0,
2012-03-09, 03:47:04,VALID,995.953,VALID,0,VALID,94.0198,VALID,0,VALID,24.3452,VALID,308,VALID,0,
2012-03-09, 03:48:04,VALID,995.935,VALID,0,VALID,93.9893,VALID,0,VALID,24.3647,VALID,308,VALID,0,
2012-03-09, 03:49:04,VALID,995.931,VALID,0,VALID,93.9817,VALID,0,VALID,24.3647,VALID,308,VALID,0,